Year,Month,Day,Hour,Minute,Value (Times are PST for temperature in C)
2015,05,26,00,00,13.00
2015,05,26,00,01,13.00
2015,05,26,00,02,13.00
2015,05,26,00,03,13.00
2015,05,26,00,04,13.00
2015,05,26,00,05,13.00
2015,05,26,00,06,13.00
2015,05,26,00,07,13.00
2015,05,26,00,08,12.90
2015,05,26,00,09,12.90
2015,05,26,00,10,12.90
2015,05,26,00,11,12.90
2015,05,26,00,12,12.90
2015,05,26,00,13,12.90
2015,05,26,00,14,12.90
2015,05,26,00,15,12.90
2015,05,26,00,16,12.80
2015,05,26,00,17,12.80
2015,05,26,00,18,12.80
2015,05,26,00,19,12.80
2015,05,26,00,20,12.70
2015,05,26,00,21,12.70
2015,05,26,00,22,12.70
2015,05,26,00,23,12.70
2015,05,26,00,24,12.70
2015,05,26,00,25,12.70
2015,05,26,00,26,12.70
2015,05,26,00,27,12.60
2015,05,26,00,28,12.60
2015,05,26,00,29,12.60
2015,05,26,00,30,12.60
2015,05,26,00,31,12.60
2015,05,26,00,32,12.60
2015,05,26,00,33,12.60
2015,05,26,00,34,12.60
2015,05,26,00,35,12.60
2015,05,26,00,36,12.60
2015,05,26,00,37,12.60
2015,05,26,00,38,12.50
2015,05,26,00,39,12.50
2015,05,26,00,40,12.50
2015,05,26,00,41,12.40
2015,05,26,00,42,12.40
2015,05,26,00,43,12.40
2015,05,26,00,44,12.40
2015,05,26,00,45,12.30
2015,05,26,00,46,12.30
2015,05,26,00,47,12.30
2015,05,26,00,48,12.20
2015,05,26,00,49,12.20
2015,05,26,00,50,12.20
2015,05,26,00,51,12.20
2015,05,26,00,52,12.20
2015,05,26,00,53,12.20
2015,05,26,00,54,12.20
2015,05,26,00,55,12.20
2015,05,26,00,56,12.20
2015,05,26,00,57,12.20
2015,05,26,00,58,12.20
2015,05,26,00,59,12.20
2015,05,26,01,00,12.20
2015,05,26,01,01,12.20
2015,05,26,01,02,12.20
2015,05,26,01,03,12.20
2015,05,26,01,04,12.20
2015,05,26,01,05,12.20
2015,05,26,01,06,12.20
2015,05,26,01,07,12.10
2015,05,26,01,08,12.10
2015,05,26,01,09,12.10
2015,05,26,01,10,12.10
2015,05,26,01,11,12.10
2015,05,26,01,12,12.10
2015,05,26,01,13,12.00
2015,05,26,01,14,12.00
2015,05,26,01,15,11.90
2015,05,26,01,16,11.90
2015,05,26,01,17,11.90
2015,05,26,01,18,11.90
2015,05,26,01,19,11.80
2015,05,26,01,20,11.80
2015,05,26,01,21,11.80
2015,05,26,01,22,11.80
2015,05,26,01,23,11.80
2015,05,26,01,24,11.80
2015,05,26,01,25,11.80
2015,05,26,01,26,11.70
2015,05,26,01,27,11.70
2015,05,26,01,28,11.70
2015,05,26,01,29,11.70
2015,05,26,01,30,11.70
2015,05,26,01,31,11.70
2015,05,26,01,32,11.70
2015,05,26,01,33,11.70
2015,05,26,01,34,11.70
2015,05,26,01,35,11.70
2015,05,26,01,36,11.60
2015,05,26,01,37,11.60
2015,05,26,01,38,11.60
2015,05,26,01,39,11.60
2015,05,26,01,40,11.60
2015,05,26,01,41,11.50
2015,05,26,01,42,11.50
2015,05,26,01,43,11.50
2015,05,26,01,44,11.40
2015,05,26,01,45,11.40
2015,05,26,01,46,11.40
2015,05,26,01,47,11.40
2015,05,26,01,48,11.40
2015,05,26,01,49,11.40
2015,05,26,01,50,11.40
2015,05,26,01,51,11.40
2015,05,26,01,52,11.30
2015,05,26,01,53,11.30
2015,05,26,01,54,11.30
2015,05,26,01,55,11.30
2015,05,26,01,56,11.30
2015,05,26,01,57,11.30
2015,05,26,01,58,11.30
2015,05,26,01,59,11.30
2015,05,26,02,00,11.30
2015,05,26,02,01,11.30
2015,05,26,02,02,11.20
2015,05,26,02,03,11.20
2015,05,26,02,04,11.20
2015,05,26,02,05,11.20
2015,05,26,02,06,11.20
2015,05,26,02,07,11.10
2015,05,26,02,08,11.10
2015,05,26,02,09,11.10
2015,05,26,02,10,11.10
2015,05,26,02,11,11.10
2015,05,26,02,12,11.00
2015,05,26,02,13,11.00
2015,05,26,02,14,10.90
2015,05,26,02,15,10.90
2015,05,26,02,16,10.80
2015,05,26,02,17,10.80
2015,05,26,02,18,10.80
2015,05,26,02,19,10.80
2015,05,26,02,20,10.70
2015,05,26,02,21,10.70
2015,05,26,02,22,10.70
2015,05,26,02,23,10.70
2015,05,26,02,24,10.80
2015,05,26,02,25,10.80
2015,05,26,02,26,10.80
2015,05,26,02,27,10.80
2015,05,26,02,28,10.80
2015,05,26,02,29,10.80
2015,05,26,02,30,10.80
2015,05,26,02,31,10.80
2015,05,26,02,32,10.80
2015,05,26,02,33,10.80
2015,05,26,02,34,10.80
2015,05,26,02,35,10.80
2015,05,26,02,36,10.80
2015,05,26,02,37,10.80
2015,05,26,02,38,10.80
2015,05,26,02,39,10.80
2015,05,26,02,40,10.80
2015,05,26,02,41,10.80
2015,05,26,02,42,10.80
2015,05,26,02,43,10.80
2015,05,26,02,44,10.80
2015,05,26,02,45,10.90
2015,05,26,02,46,10.90
2015,05,26,02,47,10.90
2015,05,26,02,48,10.90
2015,05,26,02,49,10.90
2015,05,26,02,50,10.90
2015,05,26,02,51,10.80
2015,05,26,02,52,10.80
2015,05,26,02,53,10.80
2015,05,26,02,54,10.80
2015,05,26,02,55,10.80
2015,05,26,02,56,10.80
2015,05,26,02,57,10.80
2015,05,26,02,58,10.80
2015,05,26,02,59,10.80
2015,05,26,03,00,10.80
2015,05,26,03,01,10.80
2015,05,26,03,02,10.80
2015,05,26,03,03,10.80
2015,05,26,03,04,10.80
2015,05,26,03,05,10.80
2015,05,26,03,06,10.80
2015,05,26,03,07,10.80
2015,05,26,03,08,10.80
2015,05,26,03,09,10.80
2015,05,26,03,10,10.80
2015,05,26,03,11,10.70
2015,05,26,03,12,10.70
2015,05,26,03,13,10.70
2015,05,26,03,14,10.70
2015,05,26,03,15,10.70
2015,05,26,03,16,10.70
2015,05,26,03,17,10.70
2015,05,26,03,18,10.70
2015,05,26,03,19,10.70
2015,05,26,03,20,10.60
2015,05,26,03,21,10.60
2015,05,26,03,22,10.60
2015,05,26,03,23,10.60
2015,05,26,03,24,10.60
2015,05,26,03,25,10.60
2015,05,26,03,26,10.60
2015,05,26,03,27,10.60
2015,05,26,03,28,10.60
2015,05,26,03,29,10.60
2015,05,26,03,30,10.60
2015,05,26,03,31,10.60
2015,05,26,03,32,10.60
2015,05,26,03,33,10.60
2015,05,26,03,34,10.60
2015,05,26,03,35,10.60
2015,05,26,03,36,10.60
2015,05,26,03,37,10.60
2015,05,26,03,38,10.60
2015,05,26,03,39,10.60
2015,05,26,03,40,10.60
2015,05,26,03,41,10.60
2015,05,26,03,42,10.60
2015,05,26,03,43,10.60
2015,05,26,03,44,10.60
2015,05,26,03,45,10.60
2015,05,26,03,46,10.60
2015,05,26,03,47,10.60
2015,05,26,03,48,10.60
2015,05,26,03,49,10.60
2015,05,26,03,50,10.60
2015,05,26,03,51,10.60
2015,05,26,03,52,10.60
2015,05,26,03,53,10.60
2015,05,26,03,54,10.70
2015,05,26,03,55,10.70
2015,05,26,03,56,10.70
2015,05,26,03,57,10.70
2015,05,26,03,58,10.70
2015,05,26,03,59,10.70
2015,05,26,04,00,10.70
2015,05,26,04,01,10.70
2015,05,26,04,02,10.70
2015,05,26,04,03,10.70
2015,05,26,04,04,10.70
2015,05,26,04,05,10.70
2015,05,26,04,06,10.70
2015,05,26,04,07,10.70
2015,05,26,04,08,10.70
2015,05,26,04,09,10.70
2015,05,26,04,10,10.70
2015,05,26,04,11,10.70
2015,05,26,04,12,10.70
2015,05,26,04,13,10.70
2015,05,26,04,14,10.70
2015,05,26,04,15,10.70
2015,05,26,04,16,10.70
2015,05,26,04,17,10.70
2015,05,26,04,18,10.70
2015,05,26,04,19,10.70
2015,05,26,04,20,10.70
2015,05,26,04,21,10.70
2015,05,26,04,22,10.70
2015,05,26,04,23,10.70
2015,05,26,04,24,10.70
2015,05,26,04,25,10.70
2015,05,26,04,26,10.70
2015,05,26,04,27,10.70
2015,05,26,04,28,10.70
2015,05,26,04,29,10.70
2015,05,26,04,30,10.70
2015,05,26,04,31,10.70
2015,05,26,04,32,10.70
2015,05,26,04,33,10.70
2015,05,26,04,34,10.70
2015,05,26,04,35,10.70
2015,05,26,04,36,10.70
2015,05,26,04,37,10.80
2015,05,26,04,38,10.80
2015,05,26,04,39,10.80
2015,05,26,04,40,10.80
2015,05,26,04,41,10.80
2015,05,26,04,42,10.80
2015,05,26,04,43,10.80
2015,05,26,04,44,10.80
2015,05,26,04,45,10.80
2015,05,26,04,46,10.80
2015,05,26,04,47,10.80
2015,05,26,04,48,10.80
2015,05,26,04,49,10.80
2015,05,26,04,50,10.80
2015,05,26,04,51,10.80
2015,05,26,04,52,10.80
2015,05,26,04,53,10.80
2015,05,26,04,54,10.80
2015,05,26,04,55,10.80
2015,05,26,04,56,10.80
2015,05,26,04,57,10.80
2015,05,26,04,58,10.80
2015,05,26,04,59,10.80
2015,05,26,05,00,10.80
2015,05,26,05,01,10.80
2015,05,26,05,02,10.80
2015,05,26,05,03,10.80
2015,05,26,05,04,10.80
2015,05,26,05,05,10.80
2015,05,26,05,06,10.80
2015,05,26,05,07,10.80
2015,05,26,05,08,10.80
2015,05,26,05,09,10.80
2015,05,26,05,10,10.80
2015,05,26,05,11,10.80
2015,05,26,05,12,10.80
2015,05,26,05,13,10.80
2015,05,26,05,14,10.70
2015,05,26,05,15,10.70
2015,05,26,05,16,10.70
2015,05,26,05,17,10.70
2015,05,26,05,18,10.70
2015,05,26,05,19,10.70
2015,05,26,05,20,10.70
2015,05,26,05,21,10.70
2015,05,26,05,22,10.70
2015,05,26,05,23,10.70
2015,05,26,05,24,10.70
2015,05,26,05,25,10.70
2015,05,26,05,26,10.70
2015,05,26,05,27,10.70
2015,05,26,05,28,10.70
2015,05,26,05,29,10.70
2015,05,26,05,30,10.70
2015,05,26,05,31,10.70
2015,05,26,05,32,10.70
2015,05,26,05,33,10.70
2015,05,26,05,34,10.70
2015,05,26,05,35,10.70
2015,05,26,05,36,10.70
2015,05,26,05,37,10.70
2015,05,26,05,38,10.60
2015,05,26,05,39,10.60
2015,05,26,05,40,10.60
2015,05,26,05,41,10.60
2015,05,26,05,42,10.60
2015,05,26,05,43,10.60
2015,05,26,05,44,10.60
2015,05,26,05,45,10.60
2015,05,26,05,46,10.60
2015,05,26,05,47,10.60
2015,05,26,05,48,10.60
2015,05,26,05,49,10.70
2015,05,26,05,50,10.70
2015,05,26,05,51,10.70
2015,05,26,05,52,10.70
2015,05,26,05,53,10.70
2015,05,26,05,54,10.70
2015,05,26,05,55,10.70
2015,05,26,05,56,10.70
2015,05,26,05,57,10.70
2015,05,26,05,58,10.70
2015,05,26,05,59,10.70
2015,05,26,06,00,10.70
2015,05,26,06,01,10.80
2015,05,26,06,02,10.80
2015,05,26,06,03,10.80
2015,05,26,06,04,10.80
2015,05,26,06,05,10.80
2015,05,26,06,06,10.80
2015,05,26,06,07,10.80
2015,05,26,06,08,10.90
2015,05,26,06,09,10.90
2015,05,26,06,10,10.90
2015,05,26,06,11,10.90
2015,05,26,06,12,10.90
2015,05,26,06,13,10.90
2015,05,26,06,14,11.00
2015,05,26,06,15,11.00
2015,05,26,06,16,11.00
2015,05,26,06,17,11.10
2015,05,26,06,18,11.10
2015,05,26,06,19,11.10
2015,05,26,06,20,11.10
2015,05,26,06,21,11.10
2015,05,26,06,22,11.20
2015,05,26,06,23,11.20
2015,05,26,06,24,11.20
2015,05,26,06,25,11.20
2015,05,26,06,26,11.20
2015,05,26,06,27,11.20
2015,05,26,06,28,11.30
2015,05,26,06,29,11.30
2015,05,26,06,30,11.30
2015,05,26,06,31,11.30
2015,05,26,06,32,11.40
2015,05,26,06,33,11.40
2015,05,26,06,34,11.40
2015,05,26,06,35,11.40
2015,05,26,06,36,11.50
2015,05,26,06,37,11.50
2015,05,26,06,38,11.50
2015,05,26,06,39,11.60
2015,05,26,06,40,11.60
2015,05,26,06,41,11.60
2015,05,26,06,42,11.70
2015,05,26,06,43,11.70
2015,05,26,06,44,11.70
2015,05,26,06,45,11.70
2015,05,26,06,46,11.80
2015,05,26,06,47,11.80
2015,05,26,06,48,11.80
2015,05,26,06,49,11.80
2015,05,26,06,50,11.90
2015,05,26,06,51,11.90
2015,05,26,06,52,11.90
2015,05,26,06,53,11.90
2015,05,26,06,54,11.90
2015,05,26,06,55,12.00
2015,05,26,06,56,12.00
2015,05,26,06,57,12.10
2015,05,26,06,58,12.10
2015,05,26,06,59,12.10
2015,05,26,07,00,12.10
2015,05,26,07,01,12.20
2015,05,26,07,02,12.20
2015,05,26,07,03,12.30
2015,05,26,07,04,12.30
2015,05,26,07,05,12.30
2015,05,26,07,06,12.30
2015,05,26,07,07,12.40
2015,05,26,07,08,12.40
2015,05,26,07,09,12.40
2015,05,26,07,10,12.50
2015,05,26,07,11,12.50
2015,05,26,07,12,12.60
2015,05,26,07,13,12.60
2015,05,26,07,14,12.60
2015,05,26,07,15,12.60
2015,05,26,07,16,12.70
2015,05,26,07,17,12.70
2015,05,26,07,18,12.80
2015,05,26,07,19,12.80
2015,05,26,07,20,12.80
2015,05,26,07,21,12.90
2015,05,26,07,22,12.90
2015,05,26,07,23,12.90
2015,05,26,07,24,13.00
2015,05,26,07,25,13.00
2015,05,26,07,26,13.00
2015,05,26,07,27,13.10
2015,05,26,07,28,13.10
2015,05,26,07,29,13.20
2015,05,26,07,30,13.20
2015,05,26,07,31,13.20
2015,05,26,07,32,13.30
2015,05,26,07,33,13.30
2015,05,26,07,34,13.30
2015,05,26,07,35,13.40
2015,05,26,07,36,13.40
2015,05,26,07,37,13.40
2015,05,26,07,38,13.40
2015,05,26,07,39,13.50
2015,05,26,07,40,13.50
2015,05,26,07,41,13.50
2015,05,26,07,42,13.60
2015,05,26,07,43,13.60
2015,05,26,07,44,13.60
2015,05,26,07,45,13.60
2015,05,26,07,46,13.70
2015,05,26,07,47,13.70
2015,05,26,07,48,13.80
2015,05,26,07,49,13.80
2015,05,26,07,50,13.80
2015,05,26,07,51,13.80
2015,05,26,07,52,13.90
2015,05,26,07,53,13.90
2015,05,26,07,54,13.90
2015,05,26,07,55,13.90
2015,05,26,07,56,13.90
2015,05,26,07,57,14.00
2015,05,26,07,58,14.00
2015,05,26,07,59,14.10
2015,05,26,08,00,14.10
2015,05,26,08,01,14.10
2015,05,26,08,02,14.10
2015,05,26,08,03,14.10
2015,05,26,08,04,14.10
2015,05,26,08,05,14.10
2015,05,26,08,06,14.20
2015,05,26,08,07,14.20
2015,05,26,08,08,14.20
2015,05,26,08,09,14.30
2015,05,26,08,10,14.30
2015,05,26,08,11,14.30
2015,05,26,08,12,14.40
2015,05,26,08,13,14.40
2015,05,26,08,14,14.40
2015,05,26,08,15,14.40
2015,05,26,08,16,14.50
2015,05,26,08,17,14.50
2015,05,26,08,18,14.60
2015,05,26,08,19,14.60
2015,05,26,08,20,14.60
2015,05,26,08,21,14.60
2015,05,26,08,22,14.70
2015,05,26,08,23,14.70
2015,05,26,08,24,14.70
2015,05,26,08,25,14.70
2015,05,26,08,26,14.70
2015,05,26,08,27,14.70
2015,05,26,08,28,14.70
2015,05,26,08,29,14.70
2015,05,26,08,30,14.70
2015,05,26,08,31,14.70
2015,05,26,08,32,14.70
2015,05,26,08,33,14.60
2015,05,26,08,34,14.60
2015,05,26,08,35,14.50
2015,05,26,08,36,14.50
2015,05,26,08,37,14.40
2015,05,26,08,38,14.40
2015,05,26,08,39,14.50
2015,05,26,08,40,14.50
2015,05,26,08,41,14.40
2015,05,26,08,42,14.40
2015,05,26,08,43,14.40
2015,05,26,08,44,14.40
2015,05,26,08,45,14.40
2015,05,26,08,46,14.40
2015,05,26,08,47,14.40
2015,05,26,08,48,14.50
2015,05,26,08,49,14.50
2015,05,26,08,50,14.50
2015,05,26,08,51,14.50
2015,05,26,08,52,14.50
2015,05,26,08,53,14.50
2015,05,26,08,54,14.50
2015,05,26,08,55,14.50
2015,05,26,08,56,14.50
2015,05,26,08,57,14.60
2015,05,26,08,58,14.60
2015,05,26,08,59,14.70
2015,05,26,09,00,14.80
2015,05,26,09,01,14.80
2015,05,26,09,02,14.80
2015,05,26,09,03,14.80
2015,05,26,09,04,14.80
2015,05,26,09,05,14.80
2015,05,26,09,06,14.80
2015,05,26,09,07,14.80
2015,05,26,09,08,14.80
2015,05,26,09,09,14.80
2015,05,26,09,10,14.80
2015,05,26,09,11,14.80
2015,05,26,09,12,14.80
2015,05,26,09,13,14.80
2015,05,26,09,14,14.80
2015,05,26,09,15,14.80
2015,05,26,09,16,14.80
2015,05,26,09,17,14.80
2015,05,26,09,18,14.90
2015,05,26,09,19,14.80
2015,05,26,09,20,14.80
2015,05,26,09,21,14.80
2015,05,26,09,22,14.80
2015,05,26,09,23,14.80
2015,05,26,09,24,14.80
2015,05,26,09,25,14.80
2015,05,26,09,26,14.80
2015,05,26,09,27,14.90
2015,05,26,09,28,14.90
2015,05,26,09,29,14.80
2015,05,26,09,30,14.80
2015,05,26,09,31,14.80
2015,05,26,09,32,14.90
2015,05,26,09,33,14.90
2015,05,26,09,34,14.90
2015,05,26,09,35,14.90
2015,05,26,09,36,14.90
2015,05,26,09,37,14.80
2015,05,26,09,38,14.80
2015,05,26,09,39,14.80
2015,05,26,09,40,14.70
2015,05,26,09,41,14.70
2015,05,26,09,42,14.70
2015,05,26,09,43,14.70
2015,05,26,09,44,14.70
2015,05,26,09,45,14.70
2015,05,26,09,46,14.70
2015,05,26,09,47,14.70
2015,05,26,09,48,14.70
2015,05,26,09,49,14.70
2015,05,26,09,50,14.80
2015,05,26,09,51,14.90
2015,05,26,09,52,14.90
2015,05,26,09,53,15.00
2015,05,26,09,54,15.00
2015,05,26,09,55,15.10
2015,05,26,09,56,15.10
2015,05,26,09,57,15.10
2015,05,26,09,58,15.10
2015,05,26,09,59,15.10
2015,05,26,10,00,15.10
2015,05,26,10,01,15.10
2015,05,26,10,02,15.20
2015,05,26,10,03,15.20
2015,05,26,10,04,15.20
2015,05,26,10,05,15.10
2015,05,26,10,06,15.10
2015,05,26,10,07,15.10
2015,05,26,10,08,15.20
2015,05,26,10,09,15.30
2015,05,26,10,10,15.30
2015,05,26,10,11,15.40
2015,05,26,10,12,15.40
2015,05,26,10,13,15.40
2015,05,26,10,14,15.40
2015,05,26,10,15,15.40
2015,05,26,10,16,15.30
2015,05,26,10,17,15.30
2015,05,26,10,18,15.40
2015,05,26,10,19,15.30
2015,05,26,10,20,15.30
2015,05,26,10,21,15.30
2015,05,26,10,22,15.30
2015,05,26,10,23,15.30
2015,05,26,10,24,15.40
2015,05,26,10,25,15.30
2015,05,26,10,26,15.40
2015,05,26,10,27,15.40
2015,05,26,10,28,15.40
2015,05,26,10,29,15.40
2015,05,26,10,30,15.40
2015,05,26,10,31,15.40
2015,05,26,10,32,15.40
2015,05,26,10,33,15.40
2015,05,26,10,34,15.40
2015,05,26,10,35,15.40
2015,05,26,10,36,15.40
2015,05,26,10,37,15.50
2015,05,26,10,38,15.50
2015,05,26,10,39,15.60
2015,05,26,10,40,15.70
2015,05,26,10,41,15.80
2015,05,26,10,42,15.80
2015,05,26,10,43,15.90
2015,05,26,10,44,15.90
2015,05,26,10,45,15.90
2015,05,26,10,46,15.80
2015,05,26,10,47,15.80
2015,05,26,10,48,15.80
2015,05,26,10,49,15.80
2015,05,26,10,50,15.80
2015,05,26,10,51,15.70
2015,05,26,10,52,15.80
2015,05,26,10,53,15.80
2015,05,26,10,54,15.80
2015,05,26,10,55,15.90
2015,05,26,10,56,16.00
2015,05,26,10,57,16.00
2015,05,26,10,58,16.10
2015,05,26,10,59,16.20
2015,05,26,11,00,16.20
2015,05,26,11,01,16.20
2015,05,26,11,02,16.20
2015,05,26,11,03,16.10
2015,05,26,11,04,16.10
2015,05,26,11,05,16.20
2015,05,26,11,06,16.20
2015,05,26,11,07,16.20
2015,05,26,11,08,16.30
2015,05,26,11,09,16.30
2015,05,26,11,10,16.40
2015,05,26,11,11,16.50
2015,05,26,11,12,16.50
2015,05,26,11,13,16.50
2015,05,26,11,14,16.60
2015,05,26,11,15,16.60
2015,05,26,11,16,16.60
2015,05,26,11,17,16.60
2015,05,26,11,18,16.60
2015,05,26,11,19,16.60
2015,05,26,11,20,16.70
2015,05,26,11,21,16.70
2015,05,26,11,22,16.60
2015,05,26,11,23,16.50
2015,05,26,11,24,16.50
2015,05,26,11,25,16.40
2015,05,26,11,26,16.40
2015,05,26,11,27,16.40
2015,05,26,11,28,16.40
2015,05,26,11,29,16.50
2015,05,26,11,30,16.50
2015,05,26,11,31,16.60
2015,05,26,11,32,16.60
2015,05,26,11,33,16.60
2015,05,26,11,34,16.50
2015,05,26,11,35,16.50
2015,05,26,11,36,16.50
2015,05,26,11,37,16.50
2015,05,26,11,38,16.60
2015,05,26,11,39,16.50
2015,05,26,11,40,16.50
2015,05,26,11,41,16.40
2015,05,26,11,42,16.50
2015,05,26,11,43,16.40
2015,05,26,11,44,16.40
2015,05,26,11,45,16.40
2015,05,26,11,46,16.50
2015,05,26,11,47,16.50
2015,05,26,11,48,16.60
2015,05,26,11,49,16.70
2015,05,26,11,50,16.80
2015,05,26,11,51,16.80
2015,05,26,11,52,16.90
2015,05,26,11,53,16.90
2015,05,26,11,54,17.00
2015,05,26,11,55,17.00
2015,05,26,11,56,17.00
2015,05,26,11,57,17.10
2015,05,26,11,58,17.10
2015,05,26,11,59,17.10
2015,05,26,12,00,17.20
2015,05,26,12,01,17.20
2015,05,26,12,02,17.20
2015,05,26,12,03,17.30
2015,05,26,12,04,17.30
2015,05,26,12,05,17.30
2015,05,26,12,06,17.30
2015,05,26,12,07,17.30
2015,05,26,12,08,17.30
2015,05,26,12,09,17.30
2015,05,26,12,10,17.30
2015,05,26,12,11,17.30
2015,05,26,12,12,17.30
2015,05,26,12,13,17.40
2015,05,26,12,14,17.40
2015,05,26,12,15,17.50
2015,05,26,12,16,17.50
2015,05,26,12,17,17.60
2015,05,26,12,18,17.60
2015,05,26,12,19,17.60
2015,05,26,12,20,17.60
2015,05,26,12,21,17.70
2015,05,26,12,22,17.70
2015,05,26,12,23,17.80
2015,05,26,12,24,17.90
2015,05,26,12,25,17.90
2015,05,26,12,26,17.90
2015,05,26,12,27,18.00
2015,05,26,12,28,18.10
2015,05,26,12,29,18.10
2015,05,26,12,30,18.20
2015,05,26,12,31,18.20
2015,05,26,12,32,18.30
2015,05,26,12,33,18.30
2015,05,26,12,34,18.30
2015,05,26,12,35,18.40
2015,05,26,12,36,18.40
2015,05,26,12,37,18.40
2015,05,26,12,38,18.40
2015,05,26,12,39,18.40
2015,05,26,12,40,18.40
2015,05,26,12,41,18.40
2015,05,26,12,42,18.40
2015,05,26,12,43,18.30
2015,05,26,12,44,18.30
2015,05,26,12,45,18.30
2015,05,26,12,46,18.30
2015,05,26,12,47,18.30
2015,05,26,12,48,18.30
2015,05,26,12,49,18.30
2015,05,26,12,50,18.30
2015,05,26,12,51,18.30
2015,05,26,12,52,18.30
2015,05,26,12,53,18.20
2015,05,26,12,54,18.20
2015,05,26,12,55,18.20
2015,05,26,12,56,18.10
2015,05,26,12,57,18.10
2015,05,26,12,58,18.10
2015,05,26,12,59,18.10
2015,05,26,13,00,18.20
2015,05,26,13,01,18.20
2015,05,26,13,02,18.20
2015,05,26,13,03,18.20
2015,05,26,13,04,18.20
2015,05,26,13,05,18.10
2015,05,26,13,06,18.10
2015,05,26,13,07,18.10
2015,05,26,13,08,18.10
2015,05,26,13,09,18.10
2015,05,26,13,10,18.10
2015,05,26,13,11,18.20
2015,05,26,13,12,18.20
2015,05,26,13,13,18.30
2015,05,26,13,14,18.20
2015,05,26,13,15,18.20
2015,05,26,13,16,18.20
2015,05,26,13,17,18.20
2015,05,26,13,18,18.20
2015,05,26,13,19,18.30
2015,05,26,13,20,18.40
2015,05,26,13,21,18.40
2015,05,26,13,22,18.40
2015,05,26,13,23,18.40
2015,05,26,13,24,18.50
2015,05,26,13,25,18.60
2015,05,26,13,26,18.70
2015,05,26,13,27,18.80
2015,05,26,13,28,18.80
2015,05,26,13,29,18.90
2015,05,26,13,30,19.00
2015,05,26,13,31,19.10
2015,05,26,13,32,19.20
2015,05,26,13,33,19.30
2015,05,26,13,34,19.30
2015,05,26,13,35,19.30
2015,05,26,13,36,19.30
2015,05,26,13,37,19.30
2015,05,26,13,38,19.30
2015,05,26,13,39,19.30
2015,05,26,13,40,19.30
2015,05,26,13,41,19.30
2015,05,26,13,42,19.40
2015,05,26,13,43,19.40
2015,05,26,13,44,19.50
2015,05,26,13,45,19.60
2015,05,26,13,46,19.60
2015,05,26,13,47,19.70
2015,05,26,13,48,19.70
2015,05,26,13,49,19.80
2015,05,26,13,50,19.80
2015,05,26,13,51,19.80
2015,05,26,13,52,19.80
2015,05,26,13,53,19.90
2015,05,26,13,54,19.90
2015,05,26,13,55,20.00
2015,05,26,13,56,20.00
2015,05,26,13,57,19.90
2015,05,26,13,58,19.90
2015,05,26,13,59,19.90
2015,05,26,14,00,19.90
2015,05,26,14,01,19.90
2015,05,26,14,02,19.90
2015,05,26,14,03,20.00
2015,05,26,14,04,20.00
2015,05,26,14,05,20.10
2015,05,26,14,06,20.20
2015,05,26,14,07,20.20
2015,05,26,14,08,20.10
2015,05,26,14,09,20.10
2015,05,26,14,10,20.00
2015,05,26,14,11,19.80
2015,05,26,14,12,19.80
2015,05,26,14,13,19.70
2015,05,26,14,14,19.60
2015,05,26,14,15,19.50
2015,05,26,14,16,19.50
2015,05,26,14,17,19.40
2015,05,26,14,18,19.30
2015,05,26,14,19,19.30
2015,05,26,14,20,19.30
2015,05,26,14,21,19.20
2015,05,26,14,22,19.20
2015,05,26,14,23,19.20
2015,05,26,14,24,19.30
2015,05,26,14,25,19.30
2015,05,26,14,26,19.30
2015,05,26,14,27,19.20
2015,05,26,14,28,19.20
2015,05,26,14,29,19.10
2015,05,26,14,30,19.10
2015,05,26,14,31,19.00
2015,05,26,14,32,19.00
2015,05,26,14,33,19.00
2015,05,26,14,34,19.00
2015,05,26,14,35,19.00
2015,05,26,14,36,19.00
2015,05,26,14,37,19.00
2015,05,26,14,38,19.00
2015,05,26,14,39,18.90
2015,05,26,14,40,18.90
2015,05,26,14,41,18.90
2015,05,26,14,42,18.80
2015,05,26,14,43,18.80
2015,05,26,14,44,18.80
2015,05,26,14,45,18.90
2015,05,26,14,46,18.90
2015,05,26,14,47,19.00
2015,05,26,14,48,19.00
2015,05,26,14,49,19.00
2015,05,26,14,50,18.90
2015,05,26,14,51,18.90
2015,05,26,14,52,18.90
2015,05,26,14,53,19.00
2015,05,26,14,54,19.00
2015,05,26,14,55,19.10
2015,05,26,14,56,19.10
2015,05,26,14,57,19.10
2015,05,26,14,58,19.20
2015,05,26,14,59,19.20
2015,05,26,15,00,19.30
2015,05,26,15,01,19.30
2015,05,26,15,02,19.40
2015,05,26,15,03,19.40
2015,05,26,15,04,19.40
2015,05,26,15,05,19.30
2015,05,26,15,06,19.30
2015,05,26,15,07,19.30
2015,05,26,15,08,19.30
2015,05,26,15,09,19.30
2015,05,26,15,10,19.30
2015,05,26,15,11,19.30
2015,05,26,15,12,19.30
2015,05,26,15,13,19.40
2015,05,26,15,14,19.40
2015,05,26,15,15,19.50
2015,05,26,15,16,19.60
2015,05,26,15,17,19.70
2015,05,26,15,18,19.80
2015,05,26,15,19,19.80
2015,05,26,15,20,19.90
2015,05,26,15,21,20.00
2015,05,26,15,22,20.10
2015,05,26,15,23,20.10
2015,05,26,15,24,20.20
2015,05,26,15,25,20.20
2015,05,26,15,26,20.30
2015,05,26,15,27,20.30
2015,05,26,15,28,20.40
2015,05,26,15,29,20.40
2015,05,26,15,30,20.40
2015,05,26,15,31,20.40
2015,05,26,15,32,20.30
2015,05,26,15,33,20.30
2015,05,26,15,34,20.30
2015,05,26,15,35,20.30
2015,05,26,15,36,20.30
2015,05,26,15,37,20.30
2015,05,26,15,38,20.30
2015,05,26,15,39,20.30
2015,05,26,15,40,20.30
2015,05,26,15,41,20.30
2015,05,26,15,42,20.20
2015,05,26,15,43,20.20
2015,05,26,15,44,20.20
2015,05,26,15,45,20.20
2015,05,26,15,46,20.20
2015,05,26,15,47,20.20
2015,05,26,15,48,20.20
2015,05,26,15,49,20.10
2015,05,26,15,50,20.10
2015,05,26,15,51,20.10
2015,05,26,15,52,20.10
2015,05,26,15,53,20.10
2015,05,26,15,54,20.20
2015,05,26,15,55,20.20
2015,05,26,15,56,20.20
2015,05,26,15,57,20.20
2015,05,26,15,58,20.20
2015,05,26,15,59,20.30
2015,05,26,16,00,20.30
2015,05,26,16,01,20.30
2015,05,26,16,02,20.30
2015,05,26,16,03,20.30
2015,05,26,16,04,20.30
2015,05,26,16,05,20.30
2015,05,26,16,06,20.30
2015,05,26,16,07,20.30
2015,05,26,16,08,20.40
2015,05,26,16,09,20.40
2015,05,26,16,10,20.50
2015,05,26,16,11,20.60
2015,05,26,16,12,20.60
2015,05,26,16,13,20.70
2015,05,26,16,14,20.70
2015,05,26,16,15,20.70
2015,05,26,16,16,20.70
2015,05,26,16,17,20.70
2015,05,26,16,18,20.70
2015,05,26,16,19,20.60
2015,05,26,16,20,20.60
2015,05,26,16,21,20.60
2015,05,26,16,22,20.60
2015,05,26,16,23,20.60
2015,05,26,16,24,20.70
2015,05,26,16,25,20.70
2015,05,26,16,26,20.80
2015,05,26,16,27,20.80
2015,05,26,16,28,20.90
2015,05,26,16,29,21.00
2015,05,26,16,30,21.00
2015,05,26,16,31,21.20
2015,05,26,16,32,21.30
2015,05,26,16,33,21.40
2015,05,26,16,34,21.50
2015,05,26,16,35,21.60
2015,05,26,16,36,21.70
2015,05,26,16,37,21.70
2015,05,26,16,38,21.80
2015,05,26,16,39,21.90
2015,05,26,16,40,21.90
2015,05,26,16,41,22.00
2015,05,26,16,42,22.20
2015,05,26,16,43,22.30
2015,05,26,16,44,22.40
2015,05,26,16,45,22.40
2015,05,26,16,46,22.40
2015,05,26,16,47,22.40
2015,05,26,16,48,22.30
2015,05,26,16,49,22.20
2015,05,26,16,50,22.20
2015,05,26,16,51,22.10
2015,05,26,16,52,22.10
2015,05,26,16,53,22.10
2015,05,26,16,54,22.10
2015,05,26,16,55,22.10
2015,05,26,16,56,22.10
2015,05,26,16,57,22.20
2015,05,26,16,58,22.30
2015,05,26,16,59,22.30
2015,05,26,17,00,22.40
2015,05,26,17,01,22.50
2015,05,26,17,02,22.60
2015,05,26,17,03,22.60
2015,05,26,17,04,22.60
2015,05,26,17,05,22.60
2015,05,26,17,06,22.60
2015,05,26,17,07,22.50
2015,05,26,17,08,22.50
2015,05,26,17,09,22.40
2015,05,26,17,10,22.40
2015,05,26,17,11,22.30
2015,05,26,17,12,22.10
2015,05,26,17,13,22.00
2015,05,26,17,14,21.90
2015,05,26,17,15,21.70
2015,05,26,17,16,21.60
2015,05,26,17,17,21.50
2015,05,26,17,18,21.40
2015,05,26,17,19,21.30